Location: Newark
(38.0892°N, 27.7378°E)
Time: 21:10:55
(UTC+00:00)

N. Korean satellite - Visible Passes

Search period start: 10 December 2019 00:00
Search period end: 20 December 2019 00:00
Orbit: 456 x 506 km, 97.2° (Epoch: 09 December)

Date Brightness Start Highest point End Pass type
(mag) Time Alt. Az. Time Alt. Az. Time Alt. Az.
10 Dec 8.4 03:30:15 10° NNE 03:33:25 31° E 03:36:32 10° SSE visible
10 Dec 7.9 15:36:36 10° S 15:40:10 45° W 15:43:44 10° NNW visible
11 Dec 9.8 03:05:49 10° ENE 03:07:51 15° E 03:09:51 10° SE visible
11 Dec 7.5 04:38:17 10° NNW 04:41:16 26° WNW 04:44:12 10° SW visible
11 Dec 6.6 15:11:02 10° SSE 15:14:44 79° ENE 15:18:26 10° N visible
12 Dec 6.4 04:12:29 10° N 04:15:57 60° WNW 04:19:20 10° SSW visible
12 Dec 10.0 16:21:08 10° WSW 16:22:53 13° W 16:24:38 10° WNW visible
13 Dec 7.2 03:47:05 10° NNE 03:50:31 56° E 03:53:53 10° S visible
13 Dec 9.1 15:54:09 10° SSW 15:57:17 26° W 16:00:27 10° NW visible
14 Dec 8.9 03:22:06 10° NE 03:25:00 24° E 03:27:51 10° SSE visible
14 Dec 7.4 15:28:09 10° S 15:31:49 58° W 15:35:27 10° NNW visible
15 Dec 10.0 02:58:15 10° ENE 02:59:23 11° E 03:00:31 10° ESE visible
15 Dec 7.1 04:29:45 10° N 04:32:55 33° WNW 04:36:02 10° SW visible
16 Dec 6.3 04:04:04 10° N 04:07:33 80° WNW 04:10:58 10° SSW visible
16 Dec 9.8 16:12:06 10° SW 16:14:27 16° W 16:16:48 10° NW visible
17 Dec 7.8 03:38:47 10° NNE 03:42:06 41° E 03:45:21 10° S visible
17 Dec 8.6 15:45:32 10° SSW 15:48:54 33° W 15:52:15 10° NNW visible
18 Dec 9.3 03:14:01 10° NE 03:16:32 19° E 03:19:02 10° SE visible
18 Dec 7.8 04:47:14 10° NNW 04:49:50 20° WNW 04:52:24 10° WSW visible
18 Dec 6.8 15:19:45 10° S 15:23:26 77° WSW 15:27:05 10° NNW visible
19 Dec 6.8 04:21:14 10° N 04:24:32 43° WNW 04:27:47 10° SSW visible
